Tracking 35237 objects as of 6-Sep-2026
HD Live streaming from Space Station
objects crossing your sky now

OPS 0856 DEB

Track OPS 0856 DEB now!
10-day predictions


NORAD ID: 24312
Int'l Code: 1966-077N
Launch date: August 19, 1966
Source: United States (US)
Launch site: AIR FORCE WESTERN TEST RANGE (AFWTR)

Note: This is SATELLITE DEBRIS
Your satellite tracking list
Your tracking list is empty




NASA's NSSDC Master Catalog

Two Line Element Set (TLE):
1 24312U 66077N   12337.99149101 +.00000003 +00000-0 +10000-3 0  9995
2 24312 089.7439 349.5203 0858811 027.1749 270.4482 08.64449957552882
Source of the keplerian elements: AFSPC